Regional Weather Roundup
Issued by NWS

Home | Current Version | Previous Version | Graphics & Text | Print | Product List | Glossary On
Versions: 1 2 3 4 5 6 7 8 9 10 11 12 13 14 15 16 17 18 19 20 21 22 23 24 25 26 27
000
ASUS45 KCYS 210610
RWRWY

WYOMING REGIONAL WEATHER ROUNDUP
NATIONAL WEATHER SERVICE CHEYENNE WY
1100 PM MST MON NOV 20 2017

NOTE:  "FAIR" INDICATES FEW OR NO CLOUDS BELOW 12,000 FEET
WITH NO SIGNIFICANT WEATHER AND/OR OBSTRUCTIONS TO VISIBILITY.

WYZ001-210700-
YELLOWSTONE NATIONAL PARK

CITY           SKY/WX    TMP DP  RH WIND       PRES   REMARKS
LK YELLOWSTONE   N/A     30  28  92 VRB3      30.04S
6HR MIN TEMP:  27; 6HR MAX TEMP:  30; 6HR PCP:  0.03;

W YELLOWSTONE  NOT AVBL

$$
WYZ002>013-054>058-071-098>099-210700-
NORTHERN WYOMING

CITY           SKY/WX    TMP DP  RH WIND       PRES   REMARKS
JACKSON        LGT SNOW  32  32 100 W8        30.04S FOG     WCI  25
CODY           FAIR      39  28  64 NW3       29.92R
GREYBULL       MOCLDY    37  31  78 SE6       29.91R WCI  32
6HR MIN TEMP:  37; 6HR MAX TEMP:  45; 6HR PCP: TRACE;

WORLAND        CLOUDY    33  28  81 S7        29.91R WCI  27
6HR MIN TEMP:  28; 6HR MAX TEMP:  36;

SHERIDAN       LGT RAIN  37  35  92 N12       29.93R WCI  29
6HR MIN TEMP:  37; 6HR MAX TEMP:  52; 6HR PCP:  0.01;

BUFFALO        CLOUDY    38  32  79 N7        29.90R WCI  33
6HR MIN TEMP:  38; 6HR MAX TEMP:  49; 6HR PCP: TRACE;

GILLETTE       CLOUDY    34  31  88 N13       29.89R WCI  25
6HR MIN TEMP:  34; 6HR MAX TEMP:  46;

HULETT         LGT SNOW  32  30  93 MISG      29.91R
NEWCASTLE      FAIR      39  23  52 NW5       29.83R

$$
WYZ014>020-022>026-101>103-210700-
CENTRAL WYOMING

CITY           SKY/WX    TMP DP  RH WIND       PRES   REMARKS
BIG PINEY      LGT SNOW  31  29  92 E6        30.09R FOG     WCI  25
6HR MIN TEMP:  30; 6HR MAX TEMP:  34; 6HR PCP: TRACE;

PINEDALE       LGT SNOW  32  32 100 SE3       30.09S
DUBOIS         FLURRIES  34  30  86 NW15G22   29.95S WCI  24
LANDER         FAIR      37  24  59 W5        29.92R WCI  33
6HR MIN TEMP:  34; 6HR MAX TEMP:  42;

RIVERTON       FAIR      42  30  62 W17       29.94R
6HR MIN TEMP:  36; 6HR MAX TEMP:  44;

CASPER         FAIR      41  25  53 SW20G32   29.89R
6HR MIN TEMP:  39; 6HR MAX TEMP:  45;

DOUGLAS        FAIR      40  27  59 NW9       29.84R WCI  34
6HR MIN TEMP:  40; 6HR MAX TEMP:  50;


$$
WYZ021-027>030-104>119-210700-
SOUTHERN WYOMING

CITY           SKY/WX    TMP DP  RH WIND       PRES   REMARKS
EVANSTON       CLOUDY    38  33  82 W18       30.17R WCI  28
6HR MIN TEMP:  37; 6HR MAX TEMP:  39;

KEMMERER       MIX PCPN  32  32 100 SW15      30.13R WCI  22
FORT BRIDGER   CLOUDY    39  33  79 W20G26    30.16R WCI  30
ROCK SPRINGS   MOCLDY    37  30  75 SW17      30.11S WCI  27
6HR MIN TEMP:  35; 6HR MAX TEMP:  39;

DIXON          CLOUDY    37  19  47 SW5       30.14R WCI  33
RAWLINS        LGT RAIN  39  29  67 W30G46    30.00F WCI  27
6HR MIN TEMP:  36; 6HR MAX TEMP:  39; 6HR PCP: TRACE;

SARATOGA       FAIR      37  28  70 MISG      30.04S
LARAMIE        MOCLDY    37  22  54 W36G48    29.94F WCI  23
6HR MIN TEMP:  37; 6HR MAX TEMP:  43;

CHEYENNE       FAIR      48  14  25 W33G45    29.87F
6HR MIN TEMP:  46; 6HR MAX TEMP:  52;

TORRINGTON     FAIR      52  25  35 W13G26    29.81R
6HR MIN TEMP:  52; 6HR MAX TEMP:  56;

PINE BLUFFS    FAIR      46  10  23 W15       29.85F

$$




USA.gov is the U.S. government's official web portal to all federal, state and local government web resources and services.